Tracking 19125 objects as of 19-Apr-2018
HD Live streaming from Space Station
objects crossing your sky now

METEOR 3-3

Track METEOR 3-3 now!
10-day predictions
METEOR 3-3 is classified as:


NORAD ID: 20305
Int'l Code: 1989-086A
Perigee: 1,246.7 km
Apogee: 1,255.5 km
Inclination: 82.6 °
Period: 110.4 minutes
Semi major axis: 7622 km
RCS: 6.8663 m2 (large)
Launch date: October 24, 1989
Source: Commonwealth of Independent States (former USSR) (CIS)
Launch site: PLESETSK MISSILE AND SPACE COMPLEX (PKMTR)
aabbcc
Your satellite tracking list
Your tracking list is empty




NASA's NSSDC Master Catalog

Two Line Element Set (TLE):
1 20305U 89086A   18108.73851483 -.00000187 +00000-0 -62022-3 0  9991
2 20305 082.5563 009.2391 0005770 253.6895 132.8128 13.04629828357847
Source of the keplerian elements: AFSPC